Wind_Speed
82 82 82 82 82 83 83 84 85 85 86 88 89 89 89 90 91 91 92 92 92 92 92 92 92 93 93 93 93 94 95 96 96 96 96 98 100 101 101 98 95 91 89 87 85 83 82 81 82 83 84 85
86 85 85 85 84 86 87 87 87 87 87 87 88 89 90 91 92 93 93 93 94 94 95 95 95 96 96 96 97 98 99 99 99 99 100 102 101 98 95 92 90 88 86 85 85 84 84 84 85 85 85 86
98 96 96 95 94 94 95 96 96 96 95 94 93 92 93 93 94 95 95 94 95 96 97 97 97 98 99 99 100 100 101 101 101 102 102 102 99 93 90 89 87 87 86 86 86 85 86 86 87 87 87 88
104 103 104 104 104 104 105 105 105 105 106 106 105 104 103 102 101 100 100 100 101 102 102 102 102 102 102 102 103 103 103 103 103 102 99 98 98 96 93 91 88 88 87 88 88 88 88 89 90 90 91 91
104 104 105 106 107 108 108 109 109 109 109 110 110 110 110 110 109 108 109 110 110 110 109 108 108 107 107 107 107 107 106 106 106 104 99 97 97 97 95 93 91 90 88 88 88 89 90 91 92 93 94 95
106 106 106 107 107 108 109 109 109 110 110 109 109 109 109 110 111 111 112 113 113 113 113 113 113 113 113 114 114 112 109 108 108 107 105 101 99 97 95 93 92 91 91 90 90 90 92 94 97 98 99 100
105 105 106 106 107 108 108 109 109 109 109 109 109 109 110 110 111 111 112 113 114 115 115 116 116 117 117 117 116 114 111 109 108 107 106 105 104 104 102 101 101 101 101 102 101 102 104 107 108 109 109 109
103 103 104 104 105 106 107 107 107 108 108 108 108 109 110 111 112 113 113 114 115 116 116 117 117 117 117 116 114 112 112 111 109 107 106 106 106 107 107 107 108 108 109 111 112 113 114 114 113 112 113 114
102 103 103 103 104 105 106 106 106 106 107 107 107 108 109 110 111 112 113 114 115 115 116 116 116 116 115 115 113 112 111 110 109 108 107 107 107 108 108 108 109 109 109 110 111 112 112 112 110 110 110 111
102 102 103 103 104 105 105 106 106 106 106 106 107 107 108 109 110 111 111 112 112 113 112 112 112 111 111 111 110 110 109 109 109 109 108 108 108 108 108 108 109 109 109 109 110 110 111 111 111 111 111 112
102 102 103 104 104 105 105 106 106 106 106 106 107 107 107 107 108 108 108 108 108 108 107 107 107 106 106 106 106 106 107 108 109 110 110 110 110 109 109 109 109 109 109 109 110 110 111 112 112 113 113 114
103 103 103 104 104 105 105 105 105 105 106 106 106 106 106 106 106 105 105 105 105 104 104 104 104 104 104 104 104 104 105 106 108 109 110 111 112 112 112 112 112 112 112 112 113 113 114 114 115 115 116 116
103 103 103 104 105 105 105 105 105 105 105 105 105 105 105 105 104 104 104 104 104 104 104 104 104 104 104 104 104 105 105 106 107 108 109 110 111 112 112 113 114 114 115 115 116 116 116 117 117 118 118 118
103 103 103 104 104 104 104 104 104 104 105 105 104 104 104 104 104 104 104 105 105 105 105 105 105 105 106 106 106 106 107 108 108 109 110 110 111 112 112 113 114 114 115 115 115 116 116 117 117 118 118 118
103 103 104 104 104 103 104 103 103 104 104 104 104 104 104 104 104 104 105 105 106 107 107 108 108 108 109 109 109 110 110 111 111 112 113 113 114 114 114 115 115 116 116 116 116 116 116 117 117 117 118 118
104 104 104 104 104 104 104 103 104 104 104 104 104 104 104 104 104 104 105 105 106 107 107 108 109 110 111 111 112 113 114 115 115 116 116 116 117 117 117 118 118 119 119 119 119 119 119 119 118 118 118 118
104 104 104 104 104 104 104 104 104 104 104 104 104 105 105 105 104 104 104 105 105 106 107 108 108 109 110 111 113 114 115 116 117 117 118 118 118 119 119 120 120 120 121 121 121 121 121 120 120 119 119 118
104 104 104 104 104 104 104 104 104 104 103 104 104 105 105 105 105 104 104 105 105 106 107 107 108 109 110 111 112 113 115 116 117 117 118 118 119 119 120 120 120 120 120 120 120 120 120 120 120 119 119 119
104 104 103 104 104 103 104 104 104 104 104 104 104 105 105 105 105 105 105 106 106 107 108 108 109 110 111 112 113 114 114 115 116 117 117 117 118 118 119 119 119 119 120 120 120 120 120 120 120 120 120 120
104 104 103 104 104 103 104 104 104 104 104 104 105 105 105 105 106 106 107 107 108 108 109 109 110 111 112 112 113 114 114 115 115 116 116 116 117 117 118 118 119 119 119 120 120 120 120 120 120 119 119 119
104 104 104 104 104 103 104 105 105 105 105 105 106 106 106 107 107 107 108 108 108 109 109 109 110 111 112 113 113 113 113 114 114 114 115 115 115 116 117 117 118 118 119 119 119 119 119 118 118 118 118 118
104 104 103 104 104 103 104 106 106 106 106 106 106 106 107 107 107 107 108 108 108 108 108 109 110 111 112 112 112 112 112 112 112 113 113 114 114 115 116 117 117 117 117 117 117 117 117 116 116 116 116 116
104 103 103 104 104 104 104 106 106 106 106 105 106 106 106 107 107 107 107 107 107 107 108 109 110 111 112 112 111 111 111 111 111 111 112 113 114 115 115 116 116 116 116 116 116 116 116 115 115 115 115 115
104 104 104 104 104 104 105 106 106 105 105 104 105 106 106 106 106 106 106 107 107 107 108 109 110 111 111 111 110 109 109 109 110 110 111 113 114 114 115 115 115 116 116 115 115 115 115 115 115 115 115 115
105 104 104 104 104 104 104 105 105 104 104 104 104 105 105 105 106 107 107 107 107 108 109 110 110 110 110 109 108 108 108 108 109 111 112 113 114 114 114 114 115 115 115 115 115 115 115 115 115 115 115 116
104 104 104 104 104 104 104 104 104 104 103 103 103 104 104 105 106 107 107 107 108 108 109 109 109 109 109 108 108 108 108 109 110 111 113 113 114 114 114 114 115 115 115 115 115 115 115 115 116 116 116 117
102 103 103 103 103 103 103 103 103 103 102 102 102 103 104 105 106 107 107 107 107 108 109 109 110 109 109 109 108 108 109 110 110 112 113 113 113 113 114 115 115 116 116 115 116 116 116 116 117 116 117 118
101 102 102 102 102 101 101 101 101 102 102 102 102 103 104 105 106 107 107 106 107 108 109 110 110 110 109 109 108 108 109 109 111 112 113 113 113 114 114 115 116 116 116 116 117 117 117 117 118 118 118 119
101 100 101 101 101 101 100 100 101 102 102 103 103 103 104 105 106 107 106 106 107 108 109 110 110 110 109 108 108 108 109 110 111 112 112 113 114 114 115 116 116 116 117 117 118 118 118 119 119 120 120 120
101 100 100 101 101 101 101 101 101 102 102 103 103 104 105 106 106 106 106 106 106 108 109 110 110 109 108 107 107 108 108 109 110 111 112 113 114 115 116 116 116 116 117 118 119 119 120 121 122 122 123 123
102 102 101 102 102 102 102 102 102 103 103 103 103 104 105 106 106 106 105 106 106 107 109 109 109 109 108 108 107 107 108 109 111 112 113 114 115 116 117 117 117 117 118 117 118 120 121 122 124 125 126 126
Wind_Direction
266 267 267 268 269 270 270 270 270 270 271 271 272 272 271 270 269 269 270 271 271 272 272 272 272 271 271 270 270 271 272 273 274 274 274 275 277 278 278 278 278 278 276 275 274 272 271 270 269 269 269 269
265 265 265 266 267 268 269 269 269 270 270 270 270 270 270 270 269 269 269 270 270 270 271 272 271 270 270 270 271 271 272 272 273 274 275 276 278 278 277 276 277 277 276 275 274 273 272 271 271 271 270 270
264 264 264 264 264 265 266 266 267 267 268 268 268 268 268 269 268 268 268 269 269 270 270 270 270 270 269 270 270 271 271 272 273 275 277 277 277 277 276 276 275 275 276 276 275 274 274 273 273 272 272 272
266 265 265 265 265 265 266 266 266 266 266 267 267 267 267 268 267 267 268 268 269 270 269 269 270 270 269 269 270 270 271 273 274 276 276 275 275 276 276 276 275 275 275 275 276 275 275 275 274 274 273 273
268 267 267 266 266 267 267 267 267 267 267 267 267 267 267 267 267 266 267 268 269 270 270 270 270 270 270 270 271 272 273 274 275 275 274 273 273 274 275 275 275 275 274 274 274 275 275 275 275 275 274 274
267 267 267 267 268 268 268 268 269 269 269 268 268 268 268 268 267 267 268 268 269 269 270 270 270 270 271 272 273 274 274 274 274 274 273 272 271 272 272 272 272 272 272 271 271 271 272 272 273 274 274 273
267 267 267 267 268 268 268 269 269 269 269 269 269 269 269 269 269 269 269 269 270 270 270 270 271 271 272 272 273 273 273 273 273 272 271 271 270 270 270 269 269 269 269 269 269 269 270 271 272 271 271 272
267 267 267 268 268 268 268 268 268 269 269 269 269 269 270 270 270 270 270 271 271 271 271 271 271 272 272 272 272 272 272 273 272 271 271 270 270 270 270 270 269 269 269 269 269 270 271 271 272 271 271 271
268 268 268 268 268 268 268 268 268 269 269 269 269 270 270 270 270 271 271 271 271 271 271 271 271 271 271 271 271 271 271 271 271 271 271 271 271 271 271 271 271 271 271 270 270 270 271 271 272 271 271 271
268 268 269 268 268 268 268 268 269 269 269 270 270 270 270 270 271 271 271 271 271 271 271 271 271 271 271 271 270 270 270 269 269 269 270 270 270 270 270 271 271 271 271 271 271 271 271 271 271 271 271 271
269 269 269 269 269 269 269 269 269 269 270 270 270 270 270 270 270 270 270 270 270 270 270 270 270 270 270 270 270 269 269 268 268 268 268 268 268 268 269 269 269 269 270 270 270 270 270 271 271 271 271 271
269 269 269 269 269 269 269 269 269 270 270 270 270 270 270 270 270 270 270 269 269 269 269 270 270 270 270 269 269 269 268 268 267 268 268 268 268 268 268 268 268 268 269 269 269 269 270 270 270 270 271 271
269 270 270 270 269 269 270 270 270 270 270 269 270 270 269 269 269 270 270 270 270 270 270 270 270 269 269 269 269 269 268 268 268 268 268 268 268 268 268 268 268 268 268 269 269 269 270 270 270 271 271 271
269 269 269 269 269 269 269 269 269 269 269 269 269 269 269 269 269 269 269 269 270 270 270 270 270 269 269 269 269 269 269 268 268 268 268 268 268 268 268 268 268 268 269 269 269 269 270 270 270 270 271 271
269 269 269 269 269 268 268 268 268 268 268 268 268 268 268 268 268 268 269 269 269 269 269 269 269 269 269 269 268 268 268 268 268 268 268 268 268 268 268 269 269 269 269 269 269 269 270 270 270 270 270 270
269 269 269 269 269 269 269 268 268 268 268 268 268 268 268 268 268 268 268 268 268 268 268 268 268 268 268 268 268 268 268 268 268 268 268 268 268 268 268 269 269 269 269 269 269 269 269 269 270 270 270 270
269 269 269 269 269 269 269 269 269 269 269 269 269 269 268 268 268 268 268 268 268 268 268 268 269 269 269 269 268 268 268 268 268 268 268 268 268 268 269 269 269 269 269 269 269 269 269 269 269 269 269 269
269 269 269 269 269 269 269 269 269 269 269 269 269 269 269 269 268 268 268 268 268 269 269 269 269 269 269 269 269 269 268 268 268 268 268 268 268 269 269 269 269 269 269 269 269 269 269 269 269 269 269 269
268 268 268 268 268 268 268 268 269 269 269 269 268 268 268 268 268 268 268 269 269 269 269 269 269 269 269 268 268 268 268 268 268 268 268 268 269 269 269 269 269 269 269 269 268 268 268 269 269 269 269 270
267 267 267 267 267 267 268 268 268 268 268 268 268 268 268 269 269 269 269 269 269 269 269 269 269 269 268 268 268 268 268 268 268 268 268 269 269 269 269 269 269 269 269 269 269 269 269 269 269 270 270 270
267 267 267 268 268 268 268 268 268 268 268 268 268 269 269 269 269 269 269 269 269 269 269 269 269 268 268 268 268 268 268 268 268 269 269 269 269 269 269 269 269 269 269 269 269 269 269 270 270 270 270 271
268 268 268 269 268 268 268 268 268 268 269 269 269 269 270 270 270 269 269 269 269 269 269 269 268 268 268 268 268 268 268 269 269 269 270 270 270 270 269 269 269 269 269 269 269 270 270 270 270 271 271 271
269 269 269 269 269 269 269 269 269 269 270 270 270 270 270 269 269 269 269 269 269 269 268 268 268 268 268 268 268 269 269 270 270 270 270 270 270 269 269 269 269 269 269 270 270 270 270 270 270 271 271 271
270 270 270 270 270 270 270 270 270 270 270 270 270 270 269 269 269 269 269 268 268 268 268 268 268 268 268 269 269 270 270 271 271 270 270 270 269 269 269 270 270 270 270 270 270 270 270 270 271 271 271 271
271 271 271 271 270 270 270 270 270 270 270 270 270 270 270 270 270 269 269 269 269 269 269 269 269 269 270 270 270 271 271 271 270 270 270 269 270 270 270 270 270 270 270 270 270 271 271 271 270 270 270 270
271 271 271 271 271 270 270 270 270 270 270 270 270 270 270 270 270 270 270 270 270 270 270 270 270 271 271 271 271 271 270 270 270 270 270 270 270 270 271 271 270 270 270 270 271 271 271 271 270 270 270 270
272 271 271 271 271 271 271 271 271 271 271 270 270 270 270 270 270 270 270 270 271 271 271 271 271 271 271 271 271 271 271 270 270 270 270 270 270 271 270 270 270 270 271 271 271 271 271 271 271 271 271 271
271 271 271 271 271 271 271 271 271 271 271 271 271 270 270 270 270 270 270 270 271 270 270 270 270 270 270 270 270 270 270 270 270 270 270 271 271 270 270 270 271 271 271 271 271 271 271 271 271 271 271 271
271 271 271 271 271 271 271 271 271 271 271 271 270 270 270 270 270 270 270 270 270 270 270 270 270 270 270 270 270 270 270 270 270 270 270 271 270 270 270 271 271 271 272 272 272 272 272 272 272 271 271 271
272 272 272 272 271 271 271 271 270 270 270 270 270 270 270 270 270 270 270 270 270 269 269 269 270 270 270 270 270 270 270 270 270 270 270 270 270 270 270 271 271 271 271 272 272 272 273 272 272 272 272 271
272 272 272 272 272 272 272 271 271 271 270 270 270 270 270 270 269 269 269 269 269 269 269 269 269 269 269 269 270 270 270 270 270 270 270 270 270 270 271 271 271 271 271 272 272 273 273 273 273 273 273 272
Height
10740 10741 10741 10742 10742 10742 10741 10741 10741 10741 10741 10740 10740 10741 10741 10742 10742 10743 10742 10742 10742 10743 10743 10743 10743 10743 10743 10742 10742 10742 10742 10743 10742 10742 10742 10742 10741 10740 10739 10739 10739 10738 10737 10737 10737 10738 10738 10738 10739 10740 10740 10740
10733 10734 10734 10734 10734 10734 10733 10733 10733 10733 10733 10732 10733 10733 10733 10734 10734 10734 10734 10734 10734 10734 10734 10734 10734 10734 10734 10734 10734 10734 10734 10734 10734 10734 10733 10733 10732 10732 10731 10730 10730 10729 10729 10729 10729 10729 10729 10730 10730 10730 10731 10731
10727 10727 10727 10727 10727 10726 10726 10726 10725 10725 10725 10725 10725 10725 10725 10726 10725 10725 10725 10725 10725 10725 10725 10725 10725 10725 10725 10725 10725 10725 10725 10725 10724 10725 10724 10724 10723 10722 10722 10721 10721 10721 10720 10720 10720 10720 10721 10721 10721 10721 10722 10722
10718 10718 10719 10718 10718 10718 10717 10717 10717 10716 10716 10716 10716 10717 10717 10717 10717 10716 10716 10716 10716 10716 10716 10716 10716 10716 10716 10716 10716 10716 10716 10716 10715 10715 10715 10715 10714 10713 10713 10712 10712 10712 10711 10711 10711 10711 10711 10712 10712 10712 10713 10713
10707 10708 10708 10708 10708 10708 10707 10707 10706 10706 10706 10706 10706 10706 10707 10707 10707 10707 10706 10706 10706 10706 10706 10706 10706 10706 10706 10706 10706 10706 10706 10706 10705 10705 10705 10705 10705 10704 10704 10703 10703 10703 10702 10702 10702 10702 10702 10702 10703 10703 10703 10704
10697 10697 10697 10697 10697 10697 10697 10696 10695 10695 10695 10695 10695 10695 10696 10695 10696 10696 10696 10696 10696 10695 10695 10695 10695 10695 10695 10695 10695 10695 10695 10695 10695 10695 10695 10695 10695 10695 10694 10694 10694 10694 10694 10693 10693 10693 10693 10694 10694 10694 10694 10694
10687 10686 10686 10686 10687 10686 10686 10685 10685 10684 10684 10684 10684 10685 10684 10684 10684 10685 10685 10685 10684 10684 10684 10683 10683 10683 10683 10683 10683 10683 10683 10684 10684 10684 10684 10685 10685 10685 10684 10684 10684 10684 10684 10684 10684 10684 10684 10684 10684 10684 10684 10684
10677 10676 10676 10676 10676 10676 10675 10674 10674 10674 10674 10674 10674 10674 10673 10673 10673 10673 10673 10673 10673 10672 10672 10672 10671 10671 10671 10671 10672 10672 10672 10672 10673 10673 10673 10673 10673 10673 10673 10673 10673 10673 10673 10673 10673 10673 10673 10673 10673 10673 10672 10673
10667 10667 10667 10667 10666 10665 10664 10664 10663 10664 10664 10664 10664 10663 10663 10663 10663 10662 10662 10661 10661 10660 10660 10660 10659 10659 10659 10660 10660 10661 10661 10661 10661 10661 10661 10661 10661 10661 10661 10661 10661 10661 10661 10661 10661 10661 10661 10661 10661 10661 10661 10661
10658 10657 10657 10656 10655 10654 10653 10653 10653 10654 10654 10654 10653 10653 10653 10653 10652 10651 10651 10650 10649 10649 10648 10648 10648 10648 10648 10648 10649 10649 10649 10650 10650 10650 10650 10650 10650 10650 10650 10650 10649 10649 10649 10649 10649 10649 10649 10649 10650 10650 10650 10650
10648 10647 10647 10645 10644 10644 10643 10643 10644 10644 10644 10643 10642 10642 10642 10642 10641 10640 10640 10639 10638 10638 10637 10637 10637 10637 10637 10637 10637 10638 10638 10638 10638 10638 10638 10638 10639 10638 10638 10638 10638 10638 10638 10638 10637 10637 10637 10637 10637 10638 10638 10638
10638 10638 10637 10635 10634 10634 10634 10633 10634 10634 10633 10632 10632 10632 10631 10630 10630 10629 10629 10628 10627 10627 10626 10626 10626 10626 10626 10626 10626 10626 10627 10627 10627 10627 10627 10626 10627 10627 10627 10626 10626 10626 10626 10626 10625 10625 10625 10625 10625 10625 10626 10626
10629 10629 10627 10625 10624 10624 10623 10623 10623 10623 10622 10621 10622 10621 10620 10619 10619 10619 10618 10617 10617 10616 10615 10615 10615 10615 10615 10615 10615 10615 10615 10615 10615 10615 10615 10615 10614 10614 10614 10614 10614 10614 10614 10613 10613 10613 10613 10612 10613 10613 10613 10613
10620 10619 10616 10614 10613 10614 10612 10612 10613 10611 10610 10611 10611 10610 10609 10609 10608 10608 10607 10606 10606 10605 10604 10604 10603 10603 10603 10603 10604 10604 10604 10603 10603 10603 10603 10602 10602 10602 10602 10602 10601 10601 10601 10601 10600 10600 10600 10599 10599 10599 10600 10600
10609 10607 10605 10603 10603 10603 10601 10602 10602 10599 10600 10601 10600 10598 10598 10598 10597 10597 10596 10595 10595 10594 10593 10593 10592 10592 10592 10592 10592 10592 10592 10591 10591 10591 10590 10590 10590 10589 10589 10589 10588 10588 10588 10587 10587 10587 10587 10586 10586 10586 10586 10586
10597 10595 10593 10592 10592 10592 10590 10592 10591 10588 10590 10590 10588 10588 10587 10587 10587 10586 10585 10584 10584 10583 10582 10582 10581 10581 10581 10580 10580 10580 10579 10579 10578 10578 10577 10577 10576 10576 10576 10575 10575 10574 10574 10574 10573 10573 10573 10573 10573 10573 10573 10573
10586 10584 10582 10582 10582 10581 10580 10580 10578 10578 10580 10578 10577 10576 10575 10575 10575 10574 10574 10573 10572 10571 10571 10570 10570 10569 10568 10568 10567 10566 10566 10565 10564 10564 10563 10563 10563 10563 10562 10562 10561 10561 10560 10559 10559 10559 10559 10559 10559 10559 10559 10560
10574 10572 10571 10571 10571 10570 10568 10568 10566 10567 10569 10566 10566 10563 10562 10563 10562 10562 10562 10560 10560 10560 10559 10558 10558 10557 10556 10555 10553 10553 10552 10551 10551 10550 10550 10550 10549 10549 10549 10548 10547 10547 10546 10545 10545 10544 10544 10544 10545 10545 10545 10546
10562 10561 10561 10559 10559 10559 10557 10556 10556 10557 10556 10554 10553 10551 10550 10551 10550 10550 10550 10548 10548 10548 10547 10546 10545 10544 10542 10541 10540 10539 10538 10538 10537 10537 10536 10536 10536 10535 10535 10534 10533 10532 10531 10530 10530 10530 10530 10531 10531 10532 10532 10533
10551 10550 10550 10548 10548 10549 10546 10545 10545 10544 10543 10542 10541 10539 10539 10539 10538 10538 10537 10536 10536 10535 10534 10533 10532 10530 10528 10527 10526 10525 10525 10525 10524 10524 10523 10523 10522 10522 10521 10520 10519 10517 10517 10516 10516 10516 10517 10517 10518 10519 10519 10520
10539 10539 10538 10537 10536 10538 10535 10531 10532 10531 10530 10530 10529 10528 10527 10526 10526 10526 10525 10523 10523 10522 10521 10520 10518 10516 10514 10513 10512 10512 10512 10512 10511 10511 10511 10510 10509 10508 10506 10505 10504 10503 10502 10502 10502 10502 10503 10504 10504 10505 10505 10506
10528 10527 10527 10525 10524 10525 10522 10518 10519 10519 10519 10519 10518 10517 10515 10514 10513 10513 10511 10510 10509 10509 10507 10505 10503 10501 10499 10499 10499 10499 10499 10499 10499 10499 10498 10497 10495 10493 10491 10490 10489 10489 10488 10488 10488 10489 10489 10490 10491 10491 10491 10491
10515 10515 10514 10512 10511 10512 10509 10505 10506 10508 10508 10508 10506 10504 10503 10500 10499 10498 10497 10496 10496 10494 10492 10490 10488 10486 10485 10485 10486 10487 10488 10488 10487 10486 10484 10482 10479 10477 10476 10475 10474 10474 10474 10474 10475 10475 10476 10476 10476 10477 10477 10476
10501 10501 10501 10500 10498 10499 10497 10494 10495 10496 10496 10495 10492 10490 10489 10487 10484 10483 10483 10481 10480 10479 10477 10475 10473 10472 10472 10474 10475 10476 10476 10475 10474 10472 10469 10466 10463 10462 10461 10461 10460 10460 10460 10460 10460 10461 10461 10461 10462 10462 10462 10461
10488 10488 10488 10487 10485 10485 10484 10482 10482 10482 10482 10481 10478 10476 10475 10474 10469 10468 10468 10467 10465 10464 10462 10461 10461 10461 10461 10463 10464 10464 10463 10461 10459 10456 10452 10450 10449 10448 10448 10447 10446 10445 10445 10445 10445 10446 10446 10446 10446 10447 10448 10447
10476 10475 10474 10473 10472 10471 10471 10469 10468 10468 10469 10468 10466 10463 10462 10460 10455 10453 10454 10453 10452 10451 10450 10449 10448 10449 10449 10449 10450 10449 10448 10445 10443 10440 10437 10436 10435 10435 10434 10432 10430 10429 10430 10430 10430 10431 10430 10430 10431 10431 10432 10431
10463 10461 10459 10459 10459 10458 10458 10457 10455 10454 10455 10454 10452 10450 10447 10446 10442 10439 10441 10441 10440 10438 10437 10435 10434 10434 10434 10435 10435 10434 10432 10430 10428 10425 10423 10422 10422 10421 10419 10417 10415 10414 10415 10415 10415 10415 10416 10415 10415 10418 10417 10414
10450 10448 10446 10445 10445 10446 10446 10445 10442 10440 10440 10440 10439 10436 10434 10432 10429 10426 10428 10429 10427 10424 10422 10420 10419 10420 10420 10421 10421 10420 10417 10415 10413 10410 10409 10408 10407 10406 10404 10402 10401 10401 10400 10400 10399 10399 10401 10400 10400 10402 10402 10400
10436 10436 10434 10432 10431 10432 10432 10431 10429 10427 10426 10426 10425 10423 10420 10418 10416 10415 10415 10415 10413 10409 10406 10405 10404 10405 10407 10407 10406 10405 10403 10401 10398 10397 10395 10393 10392 10391 10390 10388 10387 10388 10387 10384 10383 10384 10385 10384 10384 10385 10384 10386
10422 10422 10421 10418 10417 10417 10417 10417 10416 10415 10413 10412 10411 10408 10406 10404 10404 10403 10402 10401 10398 10394 10391 10390 10390 10391 10392 10393 10392 10391 10390 10387 10385 10383 10380 10378 10377 10377 10376 10375 10375 10375 10373 10371 10369 10369 10368 10366 10366 10366 10365 10368
10408 10407 10406 10405 10403 10402 10402 10402 10401 10400 10400 10399 10397 10394 10393 10391 10390 10390 10389 10387 10384 10380 10377 10376 10375 10376 10377 10378 10379 10378 10376 10373 10370 10368 10366 10363 10362 10362 10361 10361 10361 10360 10359 10360 10358 10353 10351 10350 10348 10346 10345 10346